Location: Red Deer
(52.2681°N, 113.8112°W)
Time: 00:50:00
(UTC-06:00)

QB50P2 - Pass Details

Date: 29 May 2022
Orbit: 589 x 607 km, 97.9° (Epoch: 27 June)

Event Time Altitude Azimuth Distance (km) Brightness Sun altitude
Rises 02:42:44 0° 18° (NNE) 2,836 ? -14.5°
Reaches altitude 10° 02:44:58 10° 24° (NNE) 1,929 ? -14.4°
Maximum altitude 02:49:02 48° 100° (E) 777 ? -14.2°
Enters shadow 02:51:46 19° 168° (SSE) 1,420 ? -14.1°
